^^
Your Local Weather - Clay, NY Station Historical Data
Daily Summary for March 7, 2018 Units:  English    Metric   Both
« Previous Day
Next Day »
Daily Weekly Monthly Yearly Custom
  High: Low: Average:
Temperature: 34.2 °F 31.7 °F 32.8 °F
Dew Point: 31.8 °F 28.0 °F 29.6 °F
Humidity: 93% 84% 88%
Wind Speed: 6.0mph 0.0mph 2.5mph
Wind Gust: 11.0mph - -
Wind- - East
Pressure: 29.82 in 29.71 in -
Precipitation: 0.07 in    
Historical Graphs
 
 
Tabular Data for March 7, 2018
Time Temperature Dew Point Pressure Wind Wind Speed Wind Gust Humidity Rainfall Rate (Hourly) solar
00:00 32.3 °F 30.0 °F 29.82 in Calm   1.0 mph 91% 0.00 in 0 W/m2
00:06 32.3 °F 30.0 °F 29.82 in Calm   2.0 mph 91% 0.00 in 0 W/m2
00:12 32.4 °F 30.1 °F 29.82 in Calm   1.0 mph 91% 0.00 in 0 W/m2
00:18 32.4 °F 30.1 °F 29.82 in SE 1.0 mph 3.0 mph 91% 0.00 in 0 W/m2
00:24 32.4 °F 30.1 °F 29.82 in ESE 2.0 mph 2.0 mph 91% 0.00 in 0 W/m2
00:30 32.4 °F 30.1 °F 29.82 in East 1.0 mph 2.0 mph 91% 0.00 in 0 W/m2
00:36 32.5 °F 30.4 °F 29.82 in ESE 1.0 mph 3.0 mph 92% 0.00 in 0 W/m2
00:42 32.5 °F 30.4 °F 29.81 in East 2.0 mph 2.0 mph 92% 0.00 in 0 W/m2
00:48 32.6 °F 30.5 °F 29.81 in ENE 2.0 mph 2.0 mph 92% 0.00 in 0 W/m2
00:54 32.6 °F 30.5 °F 29.80 in East 2.0 mph 5.0 mph 92% 0.00 in 0 W/m2
01:00 32.7 °F 30.6 °F 29.80 in East 2.0 mph 2.0 mph 92% 0.00 in 0 W/m2
01:06 32.7 °F 30.6 °F 29.79 in ENE 1.0 mph 2.0 mph 92% 0.00 in 0 W/m2
01:12 32.8 °F 30.7 °F 29.79 in ENE 1.0 mph 2.0 mph 92% 0.00 in 0 W/m2
01:18 32.9 °F 30.8 °F 29.79 in ENE 1.0 mph 2.0 mph 92% 0.00 in 0 W/m2
01:24 32.8 °F 30.7 °F 29.79 in Calm   1.0 mph 92% 0.00 in 0 W/m2
01:30 32.9 °F 30.8 °F 29.79 in Calm     92% 0.00 in 0 W/m2
01:36 32.9 °F 30.8 °F 29.79 in Calm     92% 0.00 in 0 W/m2
01:42 33.0 °F 30.9 °F 29.79 in ENE 1.0 mph 1.0 mph 92% 0.00 in 0 W/m2
01:48 33.1 °F 31.0 °F 29.79 in ENE 1.0 mph 2.0 mph 92% 0.00 in 0 W/m2
01:54 33.1 °F 31.0 °F 29.78 in SE 1.0 mph 3.0 mph 92% 0.00 in 0 W/m2
02:00 33.1 °F 31.0 °F 29.79 in East 1.0 mph 1.0 mph 92% 0.00 in 0 W/m2
02:06 33.2 °F 31.1 °F 29.78 in SE 1.0 mph 3.0 mph 92% 0.00 in 0 W/m2
02:12 33.2 °F 31.1 °F 29.77 in East 1.0 mph 1.0 mph 92% 0.00 in 0 W/m2
02:18 33.2 °F 31.1 °F 29.78 in East 1.0 mph 2.0 mph 92% 0.00 in 0 W/m2
02:24 33.2 °F 31.1 °F 29.78 in East 1.0 mph 2.0 mph 92% 0.00 in 0 W/m2
02:30 33.3 °F 31.2 °F 29.78 in ESE 1.0 mph 1.0 mph 92% 0.00 in 0 W/m2
02:36 33.3 °F 31.2 °F 29.78 in East 1.0 mph 2.0 mph 92% 0.00 in 0 W/m2
02:42 33.3 °F 31.2 °F 29.78 in East 1.0 mph 1.0 mph 92% 0.00 in 0 W/m2
02:48 33.4 °F 31.3 °F 29.79 in ESE 1.0 mph 5.0 mph 92% 0.00 in 0 W/m2
02:54 33.4 °F 31.6 °F 29.79 in ENE 2.0 mph 4.0 mph 93% 0.00 in 0 W/m2
03:00 33.6 °F 31.8 °F 29.78 in East 2.0 mph 2.0 mph 93% 0.00 in 0 W/m2
03:06 33.7 °F 31.6 °F 29.78 in ESE 3.0 mph 3.0 mph 92% 0.00 in 0 W/m2
03:12 33.8 °F 31.7 °F 29.78 in ENE 2.0 mph 4.0 mph 92% 0.00 in 0 W/m2
03:18 33.8 °F 31.7 °F 29.77 in East 2.0 mph 4.0 mph 92% 0.00 in 0 W/m2
03:24 33.8 °F 31.7 °F 29.77 in East 2.0 mph 5.0 mph 92% 0.00 in 0 W/m2
03:30 33.8 °F 31.7 °F 29.77 in East 3.0 mph 3.0 mph 92% 0.00 in 0 W/m2
03:36 33.9 °F 31.8 °F 29.77 in ESE 3.0 mph 5.0 mph 92% 0.00 in 0 W/m2
03:42 33.9 °F 31.8 °F 29.77 in ENE 3.0 mph 3.0 mph 92% 0.00 in 0 W/m2
03:48 33.9 °F 31.6 °F 29.77 in East 2.0 mph 3.0 mph 91% 0.00 in 0 W/m2
03:54 33.8 °F 31.5 °F 29.77 in Calm   3.0 mph 91% 0.00 in 0 W/m2
04:00 33.9 °F 31.6 °F 29.77 in East 2.0 mph 2.0 mph 91% 0.00 in 0 W/m2
04:06 33.9 °F 31.3 °F 29.77 in ESE 3.0 mph 3.0 mph 90% 0.00 in 0 W/m2
04:12 34.0 °F 31.4 °F 29.77 in SE 2.0 mph 5.0 mph 90% 0.00 in 0 W/m2
04:18 34.0 °F 31.4 °F 29.77 in SE 2.0 mph 5.0 mph 90% 0.00 in 0 W/m2
04:24 34.0 °F 31.1 °F 29.77 in SSE 3.0 mph 4.0 mph 89% 0.00 in 0 W/m2
04:34 34.1 °F 30.9 °F 29.77 in ESE 3.0 mph 4.0 mph 88% 0.00 in 0 W/m2
04:40 34.2 °F 31.0 °F 29.77 in SSE 3.0 mph 3.0 mph 88% 0.00 in 0 W/m2
04:46 34.2 °F 30.7 °F 29.77 in East 2.0 mph 5.0 mph 87% 0.00 in 0 W/m2
04:52 34.2 °F 30.7 °F 29.77 in SE 2.0 mph 3.0 mph 87% 0.00 in 0 W/m2
04:58 34.2 °F 30.7 °F 29.77 in ESE 2.0 mph 3.0 mph 87% 0.00 in 0 W/m2
05:04 34.1 °F 30.6 °F 29.77 in ESE 1.0 mph 2.0 mph 87% 0.00 in 0 W/m2
05:10 34.0 °F 30.5 °F 29.77 in East 2.0 mph 2.0 mph 87% 0.00 in 0 W/m2
05:16 33.9 °F 30.4 °F 29.77 in East 2.0 mph 2.0 mph 87% 0.00 in 0 W/m2
05:22 33.8 °F 30.3 °F 29.77 in ESE 1.0 mph 1.0 mph 87% 0.00 in 0 W/m2
05:28 33.8 °F 30.3 °F 29.77 in ESE 1.0 mph 2.0 mph 87% 0.00 in 0 W/m2
05:34 33.8 °F 30.3 °F 29.77 in ESE 1.0 mph 2.0 mph 87% 0.00 in 0 W/m2
05:40 33.7 °F 30.5 °F 29.77 in ENE 2.0 mph 2.0 mph 88% 0.00 in 0 W/m2
05:46 33.7 °F 30.5 °F 29.77 in ESE 2.0 mph 2.0 mph 88% 0.00 in 0 W/m2
05:52 33.7 °F 30.5 °F 29.77 in ENE 1.0 mph 2.0 mph 88% 0.00 in 0 W/m2
05:58 33.6 °F 30.4 °F 29.77 in East 1.0 mph 4.0 mph 88% 0.00 in 0 W/m2
06:04 33.4 °F 30.2 °F 29.77 in NE 2.0 mph 3.0 mph 88% 0.00 in 0 W/m2
06:10 33.3 °F 30.4 °F 29.77 in ENE 2.0 mph 2.0 mph 89% 0.00 in 0 W/m2
06:16 33.1 °F 30.2 °F 29.77 in East 3.0 mph 3.0 mph 89% 0.00 in 0 W/m2
06:22 33.0 °F 30.4 °F 29.77 in East 4.0 mph 4.0 mph 90% 0.00 in 0 W/m2
06:28 32.9 °F 30.3 °F 29.77 in ENE 3.0 mph 7.0 mph 90% 0.00 in 0 W/m2
06:34 32.9 °F 30.3 °F 29.77 in East 3.0 mph 3.0 mph 90% 0.00 in 0 W/m2
06:40 32.8 °F 30.2 °F 29.77 in ENE 2.0 mph 3.0 mph 90% 0.00 in 0 W/m2
06:46 32.8 °F 30.2 °F 29.77 in East 3.0 mph 7.0 mph 90% 0.00 in 0 W/m2
06:52 32.7 °F 30.1 °F 29.76 in ENE 3.0 mph 8.0 mph 90% 0.00 in 0 W/m2
06:58 32.6 °F 30.0 °F 29.76 in ENE 4.0 mph 8.0 mph 90% 0.00 in 0 W/m2
07:04 32.6 °F 30.0 °F 29.77 in ENE 4.0 mph 8.0 mph 90% 0.00 in 5 W/m2
07:10 32.5 °F 29.9 °F 29.77 in ENE 4.0 mph 7.0 mph 90% 0.00 in 7 W/m2
07:16 32.5 °F 29.9 °F 29.77 in ENE 4.0 mph 7.0 mph 90% 0.00 in 11 W/m2
07:22 32.5 °F 29.6 °F 29.76 in ENE 4.0 mph 5.0 mph 89% 0.00 in 16 W/m2
07:28 32.5 °F 29.6 °F 29.77 in ENE 4.0 mph 5.0 mph 89% 0.00 in 16 W/m2
07:34 32.5 °F 29.6 °F 29.76 in East 5.0 mph 8.0 mph 89% 0.00 in 12 W/m2
07:40 32.4 °F 29.5 °F 29.76 in NE 4.0 mph 10.0 mph 89% 0.00 in 12 W/m2
07:46 32.4 °F 29.5 °F 29.76 in East 3.0 mph 10.0 mph 89% 0.00 in 19 W/m2
07:52 32.3 °F 29.1 °F 29.77 in ENE 3.0 mph 3.0 mph 88% 0.00 in 21 W/m2
07:58 32.3 °F 29.1 °F 29.77 in East 5.0 mph 7.0 mph 88% 0.00 in 23 W/m2
08:04 32.3 °F 29.1 °F 29.77 in ENE 4.0 mph 6.0 mph 88% 0.00 in 33 W/m2
08:10 32.3 °F 29.1 °F 29.76 in SSE 4.0 mph 6.0 mph 88% 0.00 in 40 W/m2
08:16 32.3 °F 29.1 °F 29.77 in East 4.0 mph 6.0 mph 88% 0.00 in 37 W/m2
08:22 32.3 °F 29.1 °F 29.76 in ENE 4.0 mph 4.0 mph 88% 0.00 in 39 W/m2
08:28 32.2 °F 28.8 °F 29.76 in ENE 4.0 mph 5.0 mph 87% 0.00 in 47 W/m2
08:34 32.2 °F 28.8 °F 29.76 in East 4.0 mph 8.0 mph 87% 0.00 in 53 W/m2
08:40 32.1 °F 28.7 °F 29.76 in NNE 5.0 mph 5.0 mph 87% 0.00 in 58 W/m2
08:46 32.0 °F 28.6 °F 29.76 in ENE 5.0 mph 7.0 mph 87% 0.00 in 70 W/m2
08:52 32.1 °F 28.7 °F 29.76 in East 4.0 mph 4.0 mph 87% 0.00 in 90 W/m2
08:58 32.1 °F 28.7 °F 29.76 in East 4.0 mph 10.0 mph 87% 0.00 in 102 W/m2
09:04 32.2 °F 28.8 °F 29.76 in SE 5.0 mph 9.0 mph 87% 0.00 in 76 W/m2
09:10 32.2 °F 28.8 °F 29.76 in ENE 4.0 mph 5.0 mph 87% 0.00 in 91 W/m2
09:16 32.2 °F 28.5 °F 29.76 in ENE 4.0 mph 8.0 mph 86% 0.00 in 90 W/m2
09:22 32.1 °F 28.4 °F 29.76 in ENE 4.0 mph 8.0 mph 86% 0.00 in 84 W/m2
09:28 32.1 °F 28.4 °F 29.76 in East 5.0 mph 8.0 mph 86% 0.00 in 70 W/m2
09:34 32.1 °F 28.4 °F 29.76 in ENE 5.0 mph 10.0 mph 86% 0.00 in 69 W/m2
09:40 32.0 °F 28.3 °F 29.77 in ENE 4.0 mph 4.0 mph 86% 0.00 in 58 W/m2
09:46 32.0 °F 28.3 °F 29.77 in ENE 4.0 mph 8.0 mph 86% 0.00 in 60 W/m2
09:52 32.0 °F 28.0 °F 29.77 in ENE 5.0 mph 7.0 mph 85% 0.00 in 60 W/m2
09:58 32.0 °F 28.0 °F 29.76 in SE 5.0 mph 7.0 mph 85% 0.00 in 79 W/m2
10:04 32.0 °F 28.0 °F 29.76 in East 4.0 mph 5.0 mph 85% 0.00 in 69 W/m2
10:10 32.0 °F 28.0 °F 29.76 in ENE 3.0 mph 3.0 mph 85% 0.00 in 65 W/m2
10:16 32.0 °F 28.0 °F 29.76 in East 4.0 mph 4.0 mph 85% 0.00 in 69 W/m2
10:22 32.0 °F 28.0 °F 29.76 in East 4.0 mph 4.0 mph 85% 0.00 in 70 W/m2
10:28 32.0 °F 28.0 °F 29.76 in SSE 5.0 mph 8.0 mph 85% 0.00 in 76 W/m2
10:34 32.0 °F 28.0 °F 29.76 in East 5.0 mph 7.0 mph 85% 0.00 in 86 W/m2
10:40 32.0 °F 28.0 °F 29.76 in ENE 4.0 mph 4.0 mph 85% 0.00 in 84 W/m2
10:46 32.0 °F 28.0 °F 29.76 in SE 5.0 mph 6.0 mph 85% 0.00 in 104 W/m2
10:52 32.1 °F 28.1 °F 29.76 in ESE 4.0 mph 4.0 mph 85% 0.00 in 116 W/m2
10:58 32.0 °F 28.0 °F 29.76 in NE 4.0 mph 4.0 mph 85% 0.00 in 116 W/m2
11:04 32.1 °F 28.1 °F 29.76 in ENE 4.0 mph 7.0 mph 85% 0.00 in 121 W/m2
11:10 32.1 °F 28.1 °F 29.76 in ENE 4.0 mph 8.0 mph 85% 0.00 in 139 W/m2
11:16 32.1 °F 28.4 °F 29.76 in ESE 4.0 mph 8.0 mph 86% 0.00 in 156 W/m2
11:22 32.0 °F 28.3 °F 29.76 in East 4.0 mph 5.0 mph 86% 0.00 in 149 W/m2
11:28 31.9 °F 28.5 °F 29.76 in SE 4.0 mph 7.0 mph 87% 0.00 in 134 W/m2
11:34 31.8 °F 28.4 °F 29.76 in ENE 4.0 mph 8.0 mph 87% 0.00 in 139 W/m2
11:40 31.7 °F 28.3 °F 29.76 in East 5.0 mph 5.0 mph 87% 0.00 in 165 W/m2
11:46 31.8 °F 28.7 °F 29.76 in ESE 5.0 mph 5.0 mph 88% 0.00 in 163 W/m2
11:52 31.8 °F 28.7 °F 29.76 in East 4.0 mph 7.0 mph 88% 0.00 in 163 W/m2
11:58 31.8 °F 28.7 °F 29.75 in ENE 4.0 mph 7.0 mph 88% 0.00 in 148 W/m2
12:04 31.8 °F 28.7 °F 29.75 in ESE 4.0 mph 10.0 mph 88% 0.00 in 195 W/m2
12:10 31.8 °F 28.9 °F 29.75 in ENE 5.0 mph 7.0 mph 89% 0.00 in 246 W/m2
12:16 32.1 °F 29.2 °F 29.74 in East 5.0 mph 8.0 mph 89% 0.00 in 350 W/m2
12:22 32.4 °F 29.5 °F 29.74 in ENE 5.0 mph 5.0 mph 89% 0.00 in 373 W/m2
12:28 32.8 °F 29.6 °F 29.73 in ENE 5.0 mph 9.0 mph 88% 0.00 in 471 W/m2
12:34 33.1 °F 29.7 °F 29.73 in ENE 5.0 mph 8.0 mph 87% 0.00 in 417 W/m2
12:40 33.1 °F 29.4 °F 29.73 in NNE 6.0 mph 6.0 mph 86% 0.00 in 432 W/m2
12:46 33.4 °F 29.4 °F 29.72 in NE 5.0 mph 11.0 mph 85% 0.00 in 364 W/m2
12:52 33.6 °F 29.6 °F 29.73 in ENE 4.0 mph 8.0 mph 85% 0.00 in 334 W/m2
12:58 33.7 °F 29.4 °F 29.73 in East 4.0 mph 9.0 mph 84% 0.00 in 179 W/m2
13:04 33.4 °F 29.1 °F 29.73 in East 4.0 mph 8.0 mph 84% 0.00 in 125 W/m2
13:10 33.1 °F 28.8 °F 29.73 in ENE 4.0 mph 7.0 mph 84% 0.00 in 109 W/m2
13:16 32.8 °F 28.5 °F 29.73 in ESE 5.0 mph 7.0 mph 84% 0.00 in 97 W/m2
13:22 32.8 °F 28.8 °F 29.73 in ENE 5.0 mph 5.0 mph 85% 0.00 in 109 W/m2
13:28 32.8 °F 28.8 °F 29.72 in ESE 4.0 mph 8.0 mph 85% 0.00 in 113 W/m2
13:34 32.8 °F 28.8 °F 29.72 in ENE 3.0 mph 4.0 mph 85% 0.00 in 109 W/m2
13:40 32.9 °F 28.9 °F 29.71 in ENE 3.0 mph 3.0 mph 85% 0.00 in 121 W/m2
13:46 32.8 °F 28.8 °F 29.71 in ESE 4.0 mph 6.0 mph 85% 0.00 in 148 W/m2
13:52 32.8 °F 28.8 °F 29.72 in ENE 5.0 mph 9.0 mph 85% 0.00 in 102 W/m2
13:58 32.9 °F 29.2 °F 29.73 in North 5.0 mph 9.0 mph 86% 0.00 in 105 W/m2
14:04 33.0 °F 29.3 °F 29.73 in ENE 3.0 mph 4.0 mph 86% 0.00 in 100 W/m2
14:10 32.9 °F 28.9 °F 29.73 in ENE 4.0 mph 4.0 mph 85% 0.00 in 104 W/m2
14:16 32.9 °F 29.2 °F 29.73 in NE 5.0 mph 9.0 mph 86% 0.00 in 118 W/m2
14:22 33.1 °F 29.4 °F 29.73 in ENE 4.0 mph 4.0 mph 86% 0.00 in 100 W/m2
14:28 33.1 °F 29.4 °F 29.72 in ENE 3.0 mph 4.0 mph 86% 0.00 in 104 W/m2
14:34 33.0 °F 29.3 °F 29.72 in East 4.0 mph 4.0 mph 86% 0.00 in 90 W/m2
14:40 33.0 °F 29.6 °F 29.73 in ENE 3.0 mph 3.0 mph 87% 0.00 in 81 W/m2
14:46 33.0 °F 29.6 °F 29.73 in NE 2.0 mph 4.0 mph 87% 0.00 in 81 W/m2
14:52 33.1 °F 29.7 °F 29.73 in ESE 2.0 mph 3.0 mph 87% 0.00 in 81 W/m2
14:58 33.0 °F 29.6 °F 29.73 in ENE 2.0 mph 3.0 mph 87% 0.00 in 72 W/m2
15:06 33.0 °F 29.6 °F 29.73 in ENE 3.0 mph 7.0 mph 87% 0.00 in 72 W/m2
15:12 33.0 °F 29.6 °F 29.73 in NE 4.0 mph 4.0 mph 87% 0.00 in 67 W/m2
15:18 33.1 °F 29.9 °F 29.73 in SE 3.0 mph 4.0 mph 88% 0.00 in 63 W/m2
15:24 33.2 °F 30.0 °F 29.73 in ENE 1.0 mph 4.0 mph 88% 0.00 in 69 W/m2
15:30 33.1 °F 29.9 °F 29.73 in ENE 2.0 mph 2.0 mph 88% 0.00 in 77 W/m2
15:36 33.1 °F 29.9 °F 29.73 in ENE 3.0 mph 6.0 mph 88% 0.00 in 79 W/m2
15:44 33.1 °F 29.9 °F 29.73 in East 2.0 mph 3.0 mph 88% 0.00 in 81 W/m2
15:52 33.3 °F 30.1 °F 29.73 in ENE 1.0 mph 4.0 mph 88% 0.00 in 88 W/m2
15:58 33.2 °F 30.3 °F 29.73 in ENE 2.0 mph 4.0 mph 89% 0.00 in 76 W/m2
16:04 33.2 °F 30.3 °F 29.73 in East 3.0 mph 5.0 mph 89% 0.00 in 74 W/m2
16:10 33.2 °F 30.3 °F 29.73 in ENE 2.0 mph 3.0 mph 89% 0.00 in 63 W/m2
16:16 33.2 °F 30.3 °F 29.73 in ENE 2.0 mph 3.0 mph 89% 0.00 in 70 W/m2
16:24 33.2 °F 30.3 °F 29.73 in East 2.0 mph 5.0 mph 89% 0.00 in 77 W/m2
16:30 33.2 °F 30.3 °F 29.73 in East 2.0 mph 3.0 mph 89% 0.00 in 81 W/m2
16:36 33.2 °F 30.3 °F 29.73 in ENE 2.0 mph 3.0 mph 89% 0.00 in 67 W/m2
16:42 33.3 °F 30.4 °F 29.73 in East 2.0 mph 2.0 mph 89% 0.00 in 56 W/m2
16:48 33.2 °F 30.3 °F 29.73 in ENE 2.0 mph 5.0 mph 89% 0.00 in 49 W/m2
16:54 33.2 °F 30.3 °F 29.73 in East 3.0 mph 3.0 mph 89% 0.00 in 39 W/m2
17:00 33.2 °F 30.3 °F 29.73 in ENE 2.0 mph 3.0 mph 89% 0.00 in 32 W/m2
17:06 33.2 °F 30.0 °F 29.73 in East 2.0 mph 5.0 mph 88% 0.00 in 28 W/m2
17:12 33.2 °F 30.0 °F 29.73 in ENE 3.0 mph 4.0 mph 88% 0.00 in 26 W/m2
17:18 33.1 °F 29.9 °F 29.73 in East 3.0 mph 4.0 mph 88% 0.00 in 19 W/m2
17:24 33.2 °F 30.0 °F 29.73 in South 3.0 mph 3.0 mph 88% 0.00 in 16 W/m2
17:30 33.2 °F 29.8 °F 29.74 in East 3.0 mph 3.0 mph 87% 0.00 in 12 W/m2
17:36 33.2 °F 29.8 °F 29.74 in ESE 2.0 mph 3.0 mph 87% 0.00 in 9 W/m2
17:42 33.1 °F 29.7 °F 29.74 in SE 2.0 mph 4.0 mph 87% 0.00 in 5 W/m2
17:48 33.1 °F 29.7 °F 29.74 in SE 2.0 mph 4.0 mph 87% 0.00 in 5 W/m2
17:54 33.1 °F 29.7 °F 29.74 in SE 1.0 mph 5.0 mph 87% 0.00 in 0 W/m2
18:00 33.1 °F 29.7 °F 29.74 in East 1.0 mph 1.0 mph 87% 0.00 in 0 W/m2
18:06 33.2 °F 29.8 °F 29.74 in ENE 2.0 mph 3.0 mph 87% 0.00 in 0 W/m2
18:12 33.3 °F 29.6 °F 29.74 in ESE 3.0 mph 3.0 mph 86% 0.00 in 0 W/m2
18:18 33.3 °F 29.6 °F 29.75 in ESE 2.0 mph 3.0 mph 86% 0.00 in 0 W/m2
18:24 33.2 °F 29.5 °F 29.75 in ESE 2.0 mph 2.0 mph 86% 0.00 in 0 W/m2
18:30 33.2 °F 29.5 °F 29.75 in ENE 1.0 mph 1.0 mph 86% 0.00 in 0 W/m2
18:36 33.2 °F 29.5 °F 29.75 in ESE 1.0 mph 1.0 mph 86% 0.00 in 0 W/m2
18:42 33.2 °F 29.5 °F 29.75 in East 1.0 mph 2.0 mph 86% 0.00 in 0 W/m2
18:48 33.1 °F 29.4 °F 29.75 in ENE 2.0 mph 2.0 mph 86% 0.00 in 0 W/m2
18:54 33.1 °F 29.4 °F 29.76 in ESE 2.0 mph 3.0 mph 86% 0.00 in 0 W/m2
19:00 33.1 °F 29.4 °F 29.76 in ESE 2.0 mph 2.0 mph 86% 0.00 in 0 W/m2
19:06 33.1 °F 29.4 °F 29.76 in East 2.0 mph 3.0 mph 86% 0.00 in 0 W/m2
19:12 33.0 °F 29.3 °F 29.76 in ENE 1.0 mph 3.0 mph 86% 0.00 in 0 W/m2
19:18 33.0 °F 29.3 °F 29.76 in East 1.0 mph 3.0 mph 86% 0.00 in 0 W/m2
19:24 33.0 °F 29.3 °F 29.76 in East 1.0 mph 1.0 mph 86% 0.00 in 0 W/m2
19:30 33.0 °F 29.3 °F 29.75 in East 1.0 mph 2.0 mph 86% 0.00 in 0 W/m2
19:36 33.0 °F 29.3 °F 29.75 in SE 2.0 mph 3.0 mph 86% 0.00 in 0 W/m2
19:42 33.0 °F 29.0 °F 29.75 in East 2.0 mph 2.0 mph 85% 0.00 in 0 W/m2
19:48 33.0 °F 29.0 °F 29.75 in East 1.0 mph 5.0 mph 85% 0.00 in 0 W/m2
19:54 33.0 °F 29.0 °F 29.75 in East 2.0 mph 3.0 mph 85% 0.00 in 0 W/m2
20:00 32.9 °F 28.9 °F 29.75 in ENE 1.0 mph 2.0 mph 85% 0.00 in 0 W/m2
20:06 33.0 °F 29.0 °F 29.76 in ENE 2.0 mph 4.0 mph 85% 0.00 in 0 W/m2
20:12 32.9 °F 28.9 °F 29.76 in East 2.0 mph 3.0 mph 85% 0.00 in 0 W/m2
20:18 32.9 °F 28.9 °F 29.76 in East 2.0 mph 3.0 mph 85% 0.00 in 0 W/m2
20:24 32.8 °F 28.8 °F 29.76 in ENE 2.0 mph 3.0 mph 85% 0.00 in 0 W/m2
20:30 32.8 °F 28.8 °F 29.76 in East 2.0 mph 3.0 mph 85% 0.00 in 0 W/m2
20:36 32.7 °F 28.7 °F 29.76 in East 1.0 mph 3.0 mph 85% 0.00 in 0 W/m2
20:42 32.7 °F 28.7 °F 29.76 in ENE 1.0 mph 1.0 mph 85% 0.00 in 0 W/m2
20:48 32.7 °F 28.7 °F 29.76 in ENE 1.0 mph 1.0 mph 85% 0.00 in 0 W/m2
20:54 32.6 °F 28.6 °F 29.76 in East 1.0 mph 2.0 mph 85% 0.00 in 0 W/m2
21:00 32.6 °F 28.9 °F 29.76 in ENE 1.0 mph 1.0 mph 86% 0.00 in 0 W/m2
21:06 32.5 °F 28.8 °F 29.75 in East 1.0 mph 3.0 mph 86% 0.00 in 0 W/m2
21:12 32.5 °F 28.8 °F 29.75 in East 1.0 mph 1.0 mph 86% 0.00 in 0 W/m2
21:18 32.5 °F 28.8 °F 29.76 in ENE 1.0 mph 2.0 mph 86% 0.00 in 0 W/m2
21:24 32.5 °F 28.8 °F 29.75 in ENE 2.0 mph 3.0 mph 86% 0.00 in 0 W/m2
21:30 32.5 °F 28.8 °F 29.75 in ESE 1.0 mph 1.0 mph 86% 0.00 in 0 W/m2
21:36 32.4 °F 28.7 °F 29.75 in East 1.0 mph 2.0 mph 86% 0.00 in 0 W/m2
21:42 32.4 °F 28.7 °F 29.75 in ENE 1.0 mph 1.0 mph 86% 0.00 in 0 W/m2
21:48 32.4 °F 28.7 °F 29.75 in East 1.0 mph 3.0 mph 86% 0.00 in 0 W/m2
21:54 32.3 °F 28.6 °F 29.75 in East 1.0 mph 3.0 mph 86% 0.00 in 0 W/m2
22:00 32.3 °F 28.6 °F 29.75 in East 1.0 mph 2.0 mph 86% 0.00 in 0 W/m2
22:06 32.2 °F 28.5 °F 29.75 in ESE 2.0 mph 4.0 mph 86% 0.00 in 0 W/m2
22:12 32.2 °F 28.5 °F 29.75 in ENE 2.0 mph 3.0 mph 86% 0.00 in 0 W/m2
22:18 32.1 °F 28.7 °F 29.75 in ESE 2.0 mph 3.0 mph 87% 0.00 in 0 W/m2
22:24 32.1 °F 28.7 °F 29.75 in ESE 1.0 mph 2.0 mph 87% 0.00 in 0 W/m2
22:30 32.1 °F 28.7 °F 29.75 in ESE 1.0 mph 1.0 mph 87% 0.00 in 0 W/m2
22:36 32.0 °F 28.6 °F 29.75 in ESE 1.0 mph 1.0 mph 87% 0.00 in 0 W/m2
22:42 32.0 °F 28.6 °F 29.75 in Calm     87% 0.00 in 0 W/m2
22:48 31.9 °F 28.5 °F 29.75 in Calm     87% 0.00 in 0 W/m2
22:54 31.9 °F 28.8 °F 29.75 in Calm     88% 0.00 in 0 W/m2
23:00 31.9 °F 28.8 °F 29.75 in Calm     88% 0.00 in 0 W/m2
23:06 31.9 °F 28.8 °F 29.75 in Calm   3.0 mph 88% 0.00 in 0 W/m2
23:12 31.8 °F 28.7 °F 29.75 in ESE 1.0 mph 1.0 mph 88% 0.00 in 0 W/m2
23:18 31.8 °F 28.7 °F 29.75 in Calm   1.0 mph 88% 0.00 in 0 W/m2
23:24 31.8 °F 28.7 °F 29.74 in Calm   1.0 mph 88% 0.00 in 0 W/m2
23:30 31.8 °F 28.7 °F 29.74 in ESE 1.0 mph 1.0 mph 88% 0.00 in 0 W/m2
23:36 31.7 °F 28.6 °F 29.74 in East 1.0 mph 3.0 mph 88% 0.00 in 0 W/m2
23:42 31.7 °F 28.6 °F 29.74 in East 1.0 mph 1.0 mph 88% 0.00 in 0 W/m2
23:48 31.7 °F 28.6 °F 29.74 in East 1.0 mph 1.0 mph 88% 0.00 in 0 W/m2
23:54 31.7 °F 28.6 °F 29.74 in East 1.0 mph 2.0 mph 88% 0.00 in 0 W/m2
Country Meadow, Clay, NY, USA
Compliments of Weather Underground - 2 mb